Location: Newark
(45.4422°N, 16.2769°E)
Time: 02:31:52
(UTC+00:00)

Explorer 7 - All Passes

Search period start: 08 December 2019 00:00
Search period end: 18 December 2019 00:00
Orbit: 485 x 680 km, 50.3° (Epoch: 07 December)

Date Brightness Start Highest point End Pass type
(mag) Time Alt. Az. Time Alt. Az. Time Alt. Az.
08 Dec - 14:43:14 10° SSW 14:47:21 28° SE 14:51:31 10° E daylight
08 Dec - 16:22:44 10° WSW 16:27:39 85° NNW 16:32:35 10° ENE visible
08 Dec - 18:03:55 10° W 18:08:42 48° N 18:13:22 10° ENE visible
08 Dec - 19:45:02 10° WNW 19:49:52 60° NNE 19:54:31 10° E visible
08 Dec - 21:25:52 10° WNW 21:30:31 50° SW 21:34:55 10° SE night (unlit)
08 Dec - 23:09:29 10° WSW 23:10:10 10° SW 23:10:51 10° SW night (unlit)
09 Dec - 14:47:35 10° SSW 14:52:07 41° SE 14:56:44 10° ENE daylight
09 Dec - 16:27:46 10° WSW 16:32:40 68° NNW 16:37:34 10° ENE visible
09 Dec - 18:09:02 10° WNW 18:13:48 47° N 18:18:28 10° ENE visible
09 Dec - 19:50:01 10° WNW 19:54:54 73° NNE 19:59:36 10° ESE visible
09 Dec - 21:30:59 10° WNW 21:35:19 34° SW 21:39:26 10° SSE night (unlit)
10 Dec - 13:14:43 10° SSE 13:17:06 14° SE 13:19:31 10° E daylight
10 Dec - 14:52:12 10° SW 14:56:57 58° SSE 15:01:48 10° ENE daylight
10 Dec - 16:32:52 10° W 16:37:43 57° NNW 16:42:32 10° ENE visible
10 Dec - 18:14:08 10° WNW 18:18:55 49° N 18:23:36 10° E visible
10 Dec - 19:54:59 10° WNW 19:59:54 87° SSW 20:04:35 10° ESE visible
10 Dec - 21:36:18 10° W 21:40:03 23° SW 21:43:39 10° S night (unlit)
11 Dec - 13:18:10 10° S 13:21:45 21° SE 13:25:25 10° E daylight
11 Dec - 14:57:00 10° WSW 15:01:52 80° SSE 15:06:48 10° ENE daylight
11 Dec - 16:38:00 10° W 16:42:48 50° N 16:47:34 10° ENE visible
11 Dec - 18:19:11 10° WNW 18:24:01 54° NNE 18:28:44 10° E visible
11 Dec - 19:59:59 10° WNW 20:04:49 65° SSW 20:09:27 10° SE visible
11 Dec - 21:41:59 10° W 21:44:42 15° SW 21:47:20 10° SSW night (unlit)
12 Dec - 13:22:16 10° SSW 13:26:28 31° SE 13:30:46 10° ENE daylight
12 Dec - 15:01:57 10° WSW 15:06:50 79° NNW 15:11:47 10° ENE daylight
12 Dec - 16:43:08 10° WNW 16:47:55 47° N 16:52:38 10° ENE visible
12 Dec - 18:24:11 10° WNW 18:29:05 64° NNE 18:33:51 10° E visible
12 Dec - 20:05:02 10° WNW 20:09:40 45° SW 20:14:08 10° SE visible
13 Dec - 13:26:42 10° SW 13:31:15 45° SE 13:35:56 10° ENE daylight
13 Dec - 15:07:00 10° W 15:11:51 64° NNW 15:16:45 10° ENE daylight
13 Dec - 16:48:15 10° WNW 16:53:01 47° N 16:57:45 10° ENE visible
13 Dec - 18:29:09 10° WNW 18:34:06 79° NNE 18:38:54 10° ESE visible
13 Dec - 20:10:11 10° WNW 20:14:27 31° SW 20:18:34 10° SSE visible
14 Dec - 11:53:27 10° SSE 11:56:12 15° SE 11:59:00 10° E daylight
14 Dec - 13:31:23 10° SW 13:36:06 65° SSE 13:40:59 10° ENE daylight
14 Dec - 15:12:07 10° W 15:16:55 54° NNW 15:21:45 10° ENE daylight
14 Dec - 16:53:19 10° WNW 16:58:08 50° N 17:02:53 10° E visible
14 Dec - 18:34:08 10° WNW 18:39:04 80° SSW 18:43:51 10° ESE visible
14 Dec - 20:15:34 10° W 20:19:10 21° SW 20:22:39 10° S night (unlit)
15 Dec - 11:57:08 10° S 12:00:51 23° SE 12:04:41 10° E daylight
15 Dec - 13:36:14 10° WSW 13:41:01 87° SSE 13:45:58 10° ENE daylight
15 Dec - 15:17:16 10° W 15:22:01 49° N 15:26:48 10° ENE daylight
15 Dec - 16:58:21 10° WNW 17:03:13 57° NNE 17:08:01 10° E visible
15 Dec - 18:39:08 10° WNW 18:43:59 58° SSW 18:48:39 10° SE visible
15 Dec - 20:21:27 10° W 20:23:47 14° SW 20:26:06 10° SSW night (unlit)
16 Dec - 12:01:21 10° SSW 12:05:35 35° SE 12:09:59 10° ENE daylight
16 Dec - 13:41:13 10° WSW 13:46:00 74° NNW 13:50:56 10° ENE daylight
16 Dec - 15:22:23 10° WNW 15:27:07 47° N 15:31:53 10° ENE daylight
16 Dec - 17:03:20 10° WNW 17:08:16 68° NNE 17:13:07 10° ESE visible
16 Dec - 18:44:12 10° WNW 18:48:48 41° SW 18:53:16 10° SSE visible
17 Dec - 10:29:39 10° SE 10:30:42 11° SE 10:31:46 10° ESE daylight
17 Dec - 12:05:52 10° SW 12:10:23 50° SE 12:15:06 10° ENE daylight
17 Dec - 13:46:18 10° W 13:51:02 60° NNW 13:55:56 10° ENE daylight
17 Dec - 15:27:29 10° WNW 15:32:14 48° N 15:37:01 10° E daylight
17 Dec - 17:08:19 10° WNW 17:13:16 85° NNE 17:18:09 10° ESE visible
17 Dec - 18:49:24 10° W 18:53:34 28° SW 18:57:37 10° SSE visible
